Regional Weather Roundup
Issued by NWS

Home | Current Version | Previous Version | Text Only | Print | Product List | Glossary Off
Versions: 1 2 3 4 5 6 7 8 9 10 11 12 13 14 15 16 17 18 19 20 21 22 23 24 25 26 27

000
ASUS45 KBOU 242007
RWRCO

WEATHER ROUNDUP FOR COLORADO
NATIONAL WEATHER SERVICE DENVER/BOULDER CO
100 PM MST FRI FEB 24 2017

NOTE: "FAIR" INDICATES FEW OR NO CLOUDS BELOW 12000 FEET WITH NO
SIGNIFICANT WEATHER AND/OR OBSTRUCTIONS TO VISIBILITY.

COZ001>005-013-030-031-242100-
...NORTHWEST COLORADO...

CITY           SKY/WX    TMP DP  RH WIND       PRES   REMARKS
CRAIG          CLOUDY    22  12  65 W9        29.94S WCI  12
HAYDEN         FAIR      19   7  58 W10       29.91S WCI   8
MEEKER         PTSUNNY   25  15  66 SW7       29.91S WCI  17
MOUNT WERNER   NOT AVBL
STEAMBOAT SPGS CLOUDY    20  10  63 S9        29.89S WCI   9
WALDEN         NOT AVBL
$$

COZ006>008-011-242100-
...WEST CENTRAL VALLEYS...

CITY           SKY/WX    TMP DP  RH WIND       PRES   REMARKS
GRAND JUNCTION PTSUNNY   37   9  31 NW12G21   29.94F
MONTROSE       LGT SNOW  28  19  69 SW7       29.96S WCI  21
EAGLE          MOSUNNY   30   9  40 SW22G28   29.86F WCI  17
RIFLE          PTSUNNY   33  20  58 NW16G23   29.91F WCI  23
DELTA          FAIR      38   6  25 W13G18    29.92F
NUCLA          FLURRIES  28  19  69 NW15      29.99R WCI  17
$$

COZ017>023-064>068-242100-
...SOUTHWEST COLORADO...

CITY           SKY/WX    TMP DP  RH WIND       PRES   REMARKS
DURANGO        FAIR      31  10  41 W17G26    29.91S WCI  19
CORTEZ         CLOUDY    33  15  47 N16G25    29.95S WCI  23
PAGOSA SPRINGS FLURRIES  26   6  42 W15       29.87F WCI  13
TELLURIDE      FAIR      18   6  60 NW7G17    29.85F WCI   9
WOLF CREEK PAS HVY SNOW   1   0  92 S20G29    29.76S VSB<1/4 WCI -20
$$

COZ009-010-012-014-032>034-037-058>063-242100-
...CENTRAL COLORADO...

CITY           SKY/WX    TMP DP  RH WIND       PRES   REMARKS
ASPEN          PTSUNNY   21  11  65 NW14      29.81S WCI   8
BUENA VISTA    PTSUNNY   24   0  34 W17G25    29.79R WCI  11
COPPER MTN     NOT AVBL
BERTHOUD PASS  SNOW      -2 -13  60 NW20      29.62S VSB 1/4 WCI -25
COTTONWOOD PAS CLOUDY    19  -6  32 CALM      29.73S
GUNNISON       LGT SNOW  19  10  68 E5        29.85F WCI  13
KREMMLING      LGT SNOW  27  14  59 S5        29.83S WCI  21
LEADVILLE      PTSUNNY   13  -7  40 W14G23    29.73S WCI  -2
MONARCH PASS     N/A      3   0  85 W26G35    29.79S WCI -20
SALIDA         PTSUNNY   29  -5  22 W15G26    29.87R WCI  18
SUNLIGHT       NOT AVBL
WILKERSON PASS LGT SNOW  10  -2  56 W8        29.71S WCI  -1
$$

COZ069>075-242100-
...SAN LUIS VALLEY/SANGRE DE CRISTO MOUNTAINS...

CITY           SKY/WX    TMP DP  RH WIND       PRES   REMARKS
ALAMOSA        PTSUNNY   27   4  37 N6        29.81F WCI  20
LA VETA PASS   CLOUDY    23  -4  30 S12G17    29.74F WCI  12
SAGUACHE       FAIR      28   0  29 NW20      29.81S WCI  15
$$

COZ035-036-038>040-242100-
...NORTHERN COLORADO FRONT RANGE...

CITY           SKY/WX    TMP DP  RH WIND       PRES   REMARKS
DENVER INTL AP PTSUNNY   23  13  65 SE3       29.93F
DMNS CITY PARK   N/A     23  13  67 NE7G13    29.93F WCI  14
AURORA         PTSUNNY   23  16  75 NE9       29.93F WCI  13
FRONT RANGE AP PTSUNNY   25  16  68 CALM      29.94F
ERIE MUNI ARPT CLOUDY    24  17  76 NE6       29.95S WCI  17
BOULDER MUN AP CLOUDY    27  14  59 NE6       29.94S WCI  20
CENTENNIAL     PTSUNNY   22  11  62 N5        29.91F WCI  16
BROOMFIELD     CLOUDY    23  16  74 VRB5      29.93F WCI  17
FORT COLLINS   FLURRIES  29  17  61 VRB5      29.97F WCI  24
LONGMONT       CLOUDY    28  15  58 CALM      29.98S
$$

COZ041-046-047-076>085-087-088-242100-
...PIKES PEAK/PALMER DIVIDE AND SOUTHERN FOOTHILLS...

CITY           SKY/WX    TMP DP  RH WIND       PRES   REMARKS
COLO. SPRINGS  FLURRIES  28   7  41 VRB3      29.88F
A. F. ACADEMY  CLOUDY    23   9  54 NE3       29.86F
SCHRIEVER AFB  FAIR      23   8  52 N10       29.89F WCI  13
ELLICOTT       CLOUDY   N/A N/A N/A NE9       29.87F
FALCON         CLOUDY    20  10  64 N8        29.87S WCI  11
FORT CARSON    FLURRIES  28   7  40 CALM      29.88F
LIMON          PTSUNNY   25  16  68 N12       29.93F WCI  14
MONUMENT HILL  CLOUDY    18  10  73 NW6       29.87F WCI   9
TRINIDAD       FAIR      30  11  45 N6        29.88F WCI  24
$$

COZ042>045-048>051-090-091-242100-
...NORTHEAST COLORADO...

CITY           SKY/WX    TMP DP  RH WIND       PRES   REMARKS
GREELEY ARPT   FLURRIES  27  19  72 SE6       29.99F WCI  20
AKRON          CLOUDY    23  18  81 N7        29.97S WCI  15
BURLINGTON     CLOUDY    27  19  72 N15       29.97S WCI  15
WRAY           NOT AVBL
STERLING       CLOUDY    27  21  80 N6        30.00F FOG     WCI  20
HOLYOKE        FAIR      32  23  69 N9        30.01S WCI  24
FORT MORGAN    CLOUDY    25  17  72 N3        29.99F
$$

COZ086-089-092>099-242100-
...SOUTHEAST COLORADO...

CITY           SKY/WX    TMP DP  RH WIND       PRES   REMARKS
PUEBLO         FAIR      33  10  38 SW3       29.93F
LA JUNTA       CLOUDY    36  11  35 N9        29.95F
LAMAR          PTSUNNY   36  13  38 N12G20    29.95F
SPRINGFIELD      N/A     35  13  40 NW16G26   29.92F WCI  25
$$




USA.gov is the U.S. government's official web portal to all federal, state and local government web resources and services.